Location: Tyler Bend Campground
(35.9875°N, 92.7606°W)
Time: 18:00:48
(UTC-05:00)

CZ-2C R/B - Visible Passes

Search period start: 24 July 2014 00:00
Search period end: 03 August 2014 00:00
Orbit: 669 x 788 km, 98.1° (Epoch: 24 July)

Date Brightness Start Highest point End Pass type
(mag) Time Alt. Az. Time Alt. Az. Time Alt. Az.
25 Jul 4.7 21:19:55 10° SW 21:23:23 21° W 21:26:51 10° NW visible
27 Jul 4.8 21:23:23 10° SW 21:26:39 19° W 21:29:56 10° NW visible
29 Jul 4.9 21:26:52 10° SW 21:29:55 18° W 21:32:59 10° NW visible
31 Jul 4.9 21:30:23 10° SW 21:33:12 16° W 21:36:01 10° NW visible
01 Aug 3.1 20:40:59 10° S 20:45:26 54° W 20:49:55 10° NNW visible
02 Aug 5.0 21:33:56 10° SW 21:36:28 15° W 21:39:01 10° WNW visible
